Date String (YYYY-MM-DD hh:mm:ss) UTC,Instrument flags,Ambient pressure (hPa),Sample flow (lpm),Bypass flow (lpm),Sample temperature (°C),Ambient temperature (°C),ASC tube jacket temperature (°C),LED temperature (°C),Box temperature (°C),Sample RH (%),Span deviation,Mass concentration (μg/m³),Mass concentration (μg/m³),Mass concentration (μg/m³)
DateTimeUTC,F1_M11,P_M11,Q1_M11,Q2_M11,T1_M11,T2_M11,T3_M11,T4_M11,T5_M11,U1_M11,ZSPAN_M11,X2_M11,X0_M11,X1_M11
2022-04-08 14:00:00,,0832.3,5.01,0.00,22.6,21.8,00.0,31.5,24.4,07.9,0000.0,0002.39,0006.33,0001.38
2022-04-08 14:01:00,,0832.3,5.01,0.00,22.6,21.8,00.0,31.5,24.4,08.1,0000.0,0002.49,0006.24,0001.38
2022-04-08 14:02:00,,0832.3,5.01,0.00,22.6,21.7,00.0,31.5,24.4,08.0,0000.0,0002.53,0006.34,0001.38
2022-04-08 14:03:00,,0832.3,4.98,0.00,22.6,21.7,00.0,31.5,24.3,08.0,0000.0,0002.47,0006.08,0001.38
2022-04-08 14:04:00,,0832.2,5.01,0.00,22.5,21.7,00.0,31.5,24.3,08.1,0000.0,0002.44,0005.95,0001.39
2022-04-08 14:05:00,,0832.2,5.00,0.00,22.5,21.7,00.0,31.5,24.3,08.0,0000.0,0002.40,0005.60,0001.39
2022-04-08 14:06:00,,0832.2,5.00,0.00,22.5,21.6,00.0,31.5,24.3,08.0,0000.0,0002.36,0005.51,0001.39
2022-04-08 14:07:00,,0832.2,4.98,0.00,22.5,21.7,00.0,31.5,24.3,08.2,0000.0,0002.27,0006.19,0001.38
2022-04-08 14:08:00,,0832.2,5.01,0.00,22.5,21.7,00.0,31.5,24.3,08.2,0000.0,0002.27,0006.64,0001.38
2022-04-08 14:09:00,,0832.2,5.01,0.00,22.6,21.7,00.0,31.5,24.3,08.1,0000.0,0002.26,0006.91,0001.39
2022-04-08 14:10:00,,0832.2,4.98,0.00,22.6,21.7,00.0,31.5,24.3,07.9,0000.0,0002.33,0007.06,0001.40
2022-04-08 14:11:00,,0832.1,5.01,0.00,22.6,21.7,00.0,31.5,24.3,07.9,0000.0,0002.37,0007.13,0001.41
2022-04-08 14:12:00,,0832.1,5.01,0.00,22.6,21.7,00.0,31.5,24.3,07.8,0000.0,0002.25,0006.88,0001.42
2022-04-08 14:13:00,,0832.2,4.98,0.00,22.6,21.8,00.0,31.5,24.4,08.0,0000.0,0002.23,0006.64,0001.44
2022-04-08 14:14:00,,0832.2,5.01,0.00,22.6,21.8,00.0,31.5,24.4,08.0,0000.0,0002.27,0006.72,0001.44
2022-04-08 14:15:00,,0832.2,5.01,0.00,22.6,21.8,00.0,31.5,24.4,07.9,0000.0,0002.37,0007.10,0001.45
2022-04-08 14:16:00,,0832.3,4.98,0.00,22.6,21.8,00.0,31.5,24.4,08.0,0000.0,0002.45,0007.41,0001.45
2022-04-08 14:17:00,,0832.2,5.01,0.00,22.6,21.8,00.0,31.5,24.4,08.0,0000.0,0002.53,0007.51,0001.45
2022-04-08 14:18:00,,0832.2,5.01,0.00,22.7,21.8,00.0,31.5,24.5,08.0,0000.0,0002.57,0006.85,0001.46
2022-04-08 14:19:00,,0832.1,4.99,0.00,22.7,21.8,00.0,31.5,24.5,07.9,0000.0,0002.62,0007.01,0001.48
2022-04-08 14:20:00,,0832.1,5.00,0.00,22.7,21.8,00.0,31.5,24.4,07.9,0000.0,0002.61,0006.73,0001.48
2022-04-08 14:21:00,,0832.1,5.00,0.00,22.7,21.9,00.0,31.5,24.5,08.1,0000.0,0002.61,0006.17,0001.49
2022-04-08 14:22:00,,0832.2,5.00,0.00,22.7,21.9,00.0,31.5,24.5,07.9,0000.0,0002.56,0006.09,0001.48
2022-04-08 14:23:00,,0832.2,4.99,0.00,22.7,21.9,00.0,31.5,24.5,07.8,0000.0,0002.57,0006.40,0001.48
2022-04-08 14:24:00,,0832.2,5.01,0.00,22.7,21.9,00.0,31.6,24.5,07.8,0000.0,0002.59,0006.60,0001.46
2022-04-08 14:25:00,,0832.2,5.00,0.00,22.7,21.9,00.0,31.6,24.5,08.0,0000.0,0002.60,0006.71,0001.45
2022-04-08 14:26:00,,0832.2,5.00,0.00,22.7,21.9,00.0,31.6,24.6,08.8,0000.0,0002.57,0006.52,0001.44
2022-04-08 14:27:00,,0832.2,4.99,0.00,22.8,21.9,00.0,31.6,24.6,08.9,0000.0,0002.58,0006.48,0001.45
2022-04-08 14:28:00,,0832.2,5.01,0.00,22.8,21.9,00.0,31.6,24.6,08.9,0000.0,0002.58,0006.67,0001.47
2022-04-08 14:29:00,,0832.1,5.01,0.00,22.8,21.9,00.0,31.6,24.6,08.9,0000.0,0002.66,0006.78,0001.48
2022-04-08 14:30:00,,0832.1,5.00,0.00,22.8,21.9,00.0,31.6,24.6,09.0,0000.0,0002.63,0006.55,0001.48
2022-04-08 14:31:00,,0832.1,4.99,0.00,22.8,21.9,00.0,31.6,24.6,09.1,0000.0,0002.73,0007.92,0001.50
2022-04-08 14:32:00,,0832.1,5.00,0.00,22.8,21.9,00.0,31.6,24.6,09.1,0000.0,0002.78,0008.45,0001.51
2022-04-08 14:33:00,,0832.1,5.01,0.00,22.8,22.0,00.0,31.7,24.6,09.1,0000.0,0002.87,0008.84,0001.53
2022-04-08 14:34:00,,0832.1,5.00,0.00,22.8,22.0,00.0,31.7,24.6,09.1,0000.0,0002.90,0009.15,0001.55
2022-04-08 14:35:00,,0832.1,5.00,0.00,22.8,22.0,00.0,31.7,24.6,09.2,0000.0,0002.90,0009.11,0001.58
2022-04-08 14:36:00,,0832.1,4.99,0.00,22.8,22.0,00.0,31.7,24.7,09.1,0000.0,0002.90,0009.07,0001.60
2022-04-08 14:37:00,,0832.1,5.00,0.00,22.8,22.0,00.0,31.7,24.7,09.2,0000.0,0002.90,0009.08,0001.61
2022-04-08 14:38:00,,0832.1,5.00,0.00,22.9,22.0,00.0,31.7,24.7,09.3,0000.0,0002.85,0010.06,0001.60
2022-04-08 14:39:00,,0832.2,5.01,0.00,22.9,22.0,00.0,31.7,24.7,09.5,0000.0,0002.86,0010.38,0001.60
2022-04-08 14:40:00,,0832.1,5.00,0.00,22.9,22.0,00.0,31.7,24.7,09.3,0000.0,0002.85,0011.06,0001.59
2022-04-08 14:41:00,,0832.1,5.01,0.00,22.9,22.1,00.0,31.7,24.7,09.4,0000.0,0002.91,0011.13,0001.59
2022-04-08 14:42:00,,0832.1,4.99,0.00,22.9,22.1,00.0,31.7,24.7,09.2,0000.0,0002.83,0010.06,0001.58
2022-04-08 14:43:00,,0832.1,5.00,0.00,22.9,22.1,00.0,31.8,24.8,09.3,0000.0,0002.84,0009.59,0001.58
2022-04-08 14:44:00,,0832.1,5.01,0.00,22.9,22.1,00.0,31.8,24.7,09.4,0000.0,0002.83,0009.37,0001.56
2022-04-08 14:45:00,,0832.1,5.01,0.00,22.9,22.1,00.0,31.8,24.8,09.4,0000.0,0002.81,0009.02,0001.53
2022-04-08 14:46:00,,0832.2,5.00,0.00,22.9,22.1,00.0,31.8,24.8,09.3,0000.0,0002.81,0009.20,0001.51
2022-04-08 14:47:00,,0832.1,5.00,0.00,23.0,22.1,00.0,31.8,24.8,09.1,0000.0,0002.80,0009.40,0001.50
2022-04-08 14:48:00,,0832.1,4.99,0.00,23.0,22.1,00.0,31.8,24.8,09.2,0000.0,0002.83,0009.90,0001.50
2022-04-08 14:49:00,,0832.1,4.99,0.00,23.0,22.1,00.0,31.8,24.8,09.3,0000.0,0002.90,0009.52,0001.51
2022-04-08 14:50:00,,0832.2,5.00,0.00,23.0,22.1,00.0,31.8,24.8,09.3,0000.0,0002.95,0009.17,0001.51
2022-04-08 14:51:00,,0832.1,5.01,0.00,23.0,22.1,00.0,31.8,24.8,09.3,0000.0,0002.94,0009.01,0001.51
2022-04-08 14:52:00,,0832.1,5.00,0.00,23.0,22.1,00.0,31.8,24.8,09.4,0000.0,0002.88,0008.92,0001.51
2022-04-08 14:53:00,,0832.1,5.00,0.00,23.0,22.2,00.0,31.9,24.9,09.4,0000.0,0002.89,0009.25,0001.51
2022-04-08 14:54:00,,0832.1,5.00,0.00,23.0,22.2,00.0,31.9,24.9,09.5,0000.0,0002.83,0009.33,0001.51
2022-04-08 14:55:00,,0832.1,4.99,0.00,23.0,22.2,00.0,31.9,24.9,09.5,0000.0,0002.74,0009.15,0001.51
2022-04-08 14:56:00,,0832.1,4.99,0.00,23.1,22.2,00.0,31.9,24.9,09.3,0000.0,0002.73,0009.04,0001.52
2022-04-08 14:57:00,,0832.1,5.00,0.00,23.1,22.2,00.0,31.9,24.9,09.5,0000.0,0002.72,0009.03,0001.51
2022-04-08 14:58:00,,0832.1,5.00,0.00,23.1,22.2,00.0,31.9,24.9,09.6,0000.0,0002.72,0008.83,0001.51
2022-04-08 14:59:00,,0832.1,5.00,0.00,23.1,22.2,00.0,31.9,24.9,09.5,0000.0,0002.73,0008.53,0001.52
